{"data":{"norad_id":58628,"epoch":"2026-05-24T22:30:39.676608Z","epoch_age_seconds":73606,"freshness":"FRESH","line1":"1 58628U 23203L   26144.93795922  .00002440  00000+0  98124-4 0  9999","line2":"2 58628  43.0026 356.3909 0001565 274.4564  85.6109 15.27589448135225","mean_motion":15.27589448,"eccentricity":0.0001565,"inclination_deg":43.0026,"raan_deg":356.3909,"arg_perigee_deg":274.4564,"mean_anomaly_deg":85.6109,"bstar":9.8124e-5,"rev_number":13522,"period_min":94.266165682496,"perigee_km":481.94703427801,"apogee_km":484.09457667112,"semimajor_km":6861.1578054746,"source":"CELESTRAK","updated_at":"2026-05-25T13:38:18.707002Z"}}